Content
SEND FEEDBACK

Daily
Averages
Monthly
Summary
Greece

IOANNINA, GREECE


Home > Europe > Greece
Elevation: 1588 feet     Latitude: 39 40N     Longitude: 020 51E

WEATHER
 
SELECT A DAY
Number of Records: 283,959;   Date Range: 7/1/96 - 9/21/14
 
SHARE

PRINT THIS DATA

[ ← Previous Day ]
WEATHER ALMANAC - JANUARY 18, 2013
[ Next Day → ]
[ °C ]   °F
Weather ElementAverageHighLow
Temperature49.4 °F57.2 °F (9:50 am)42.8 °F (11:50 pm)
Dewpoint45.9 °F53.6 °F (1:50 am)41 °F (1:50 pm)
Humidity87.5 %100 % (4:50 pm)72 % (6:50 am)
Barometer29.41 in29.50 in (11:50 pm)29.39 in (7:50 am)
Wind Speed5.5 mph15 mph (12:50 am)
Wind Gust26.5 mph (1:20 pm)
Weather ElementAverage
Visibility5.9 mi
Wind DirectionSE (139.6 °)

Weather ElementTotal
Precipitation---
Heating Degree Days15 (Base 65)
Averaged from 51 records on January 18, 2013
WEATHER CONDITIONS BREAKOUT
WIND DIRECTION BREAKOUT
WEATHER BY HOUR - JANUARY 18, 2013
[ °C ]   °F
Local TimeTemperatureDewpointHumidityBarometerVisibilityWind DirectionWind SpeedGust SpeedPrecipitationEventsConditions
12:50 AM55.4 °F51.8 °F88 %29.44 in6.2 miSSW (200°)15.0 mphRainLight Rain
1:20 AM55.4 °F51.8 °F88 %29.42 in6.2 miWSW (250°)11.5 mphRainLight Rain
1:50 AM55.4 °F53.6 °F94 %29.42 in5.0 miWSW (250°)8.1 mphRainLight Rain
2:00 AM55.0 °F53.0 °F89 %29.44 in5.0 miWSW (250°)8.1 mphRainLight Rain
2:20 AM55.4 °F53.6 °F94 %29.42 in3.7 miWest (260°)5.8 mphRainLight Rain
2:50 AM51.8 °F50.0 °F94 %29.42 in6.2 miWSW (250°)8.1 mphOvercast
3:20 AM51.8 °F50.0 °F94 %29.42 in6.2 miWSW (240°)8.1 mphOvercast
3:50 AM51.8 °F48.2 °F88 %29.42 in6.2 miWSW (250°)6.9 mphOvercast
4:20 AM51.8 °F50.0 °F94 %29.42 in6.2 miSSW (200°)4.6 mphRainLight Rain
4:50 AM51.8 °F50.0 °F94 %29.42 in6.2 miWest (260°)11.5 mphRainLight Rain
5:20 AM51.8 °F48.2 °F88 %29.42 in6.2 miWest (260°)9.2 mphMostly Cloudy
5:50 AM51.8 °F48.2 °F88 %29.42 in6.2 miWest (260°)12.7 mphMostly Cloudy
6:20 AM53.6 °F48.2 °F82 %29.42 in6.2 miWSW (240°)8.1 mphScattered Clouds
6:50 AM53.6 °F44.6 °F72 %29.42 in6.2 miSW (230°)8.1 mphScattered Clouds
7:20 AM53.6 °F44.6 °F72 %29.42 in6.2 miSSW (200°)4.6 mphMostly Cloudy
7:50 AM51.8 °F46.4 °F82 %29.39 in6.2 miSW (220°)8.1 mphMostly Cloudy
8:00 AM52.0 °F46.0 °F74 %29.41 in6.0 miSW (220°)8.1 mphMostly Cloudy
8:20 AM51.8 °F46.4 °F82 %29.39 in6.2 miNNW (340°)12.7 mphMostly Cloudy
8:50 AM53.6 °F46.4 °F77 %29.42 in6.2 miNNW (330°)4.6 mphScattered Clouds
9:20 AM53.6 °F46.4 °F77 %29.42 in6.2 miCalmScattered Clouds
9:50 AM57.2 °F48.2 °F72 %29.42 in6.2 miCalmScattered Clouds
10:20 AM57.2 °F48.2 °F72 %29.42 in6.2 miCalmScattered Clouds
10:50 AM51.8 °F48.2 °F88 %29.39 in6.2 miCalmMostly Cloudy
11:20 AM50.0 °F46.4 °F87 %29.39 in5.0 miSW (220°)8.1 mph19.6 mphHail-ThunderstormThunderstorms with Hail
11:50 AM50.0 °F46.4 °F87 %29.39 in6.2 miSouth (190°)9.2 mphRain-ThunderstormLight Thunderstorms and Rain
12:20 PM50.0 °F46.4 °F87 %29.39 in6.2 miSouth (170°)9.2 mphRainLight Rain
12:50 PM50.0 °F46.4 °F87 %29.39 in6.2 miSSE (150°)15.0 mphRainLight Rain
1:20 PM48.2 °F46.4 °F93 %29.39 in5.0 miSouth (180°)15.0 mph26.5 mphRainLight Rain
1:50 PM46.4 °F41.0 °F81 %29.39 in4.3 miSouth (190°)10.4 mph21.9 mphRainLight Rain
2:00 PM46.0 °F41.0 °F76 %29.40 in4.0 miSouth (190°)10.4 mphRainLight Rain
2:20 PM46.4 °F41.0 °F81 %29.39 in5.0 miSSW (200°)8.1 mphRainRain
2:50 PM46.4 °F41.0 °F81 %29.39 in6.2 miCalmMostly Cloudy
3:20 PM46.4 °F41.0 °F81 %29.39 in6.2 miCalmRainLight Rain
3:50 PM46.4 °F42.8 °F87 %29.39 in6.2 miCalmMostly Cloudy
4:20 PM46.4 °F42.8 °F87 %29.39 in6.2 miCalmRainLight Rain
4:50 PM44.6 °F44.6 °F100 %29.39 in6.2 miSE (130°)4.6 mphRain-ThunderstormLight Thunderstorms and Rain
5:20 PM44.6 °F44.6 °F100 %29.39 in6.2 miCalmRain-ThunderstormLight Thunderstorms and Rain
5:50 PM44.6 °F42.8 °F93 %29.39 in6.2 miCalmMostly Cloudy
6:20 PM44.6 °F42.8 °F93 %29.39 in6.2 miCalmMostly Cloudy
6:50 PM44.6 °F42.8 °F93 %29.42 in6.2 miCalmMostly Cloudy
7:20 PM44.6 °F42.8 °F93 %29.42 in6.2 miCalmRainLight Rain
7:50 PM44.6 °F42.8 °F93 %29.42 in6.2 miEast (90°)5.8 mphThunderstormThunderstorm
8:00 PM45.0 °F43.0 °F90 %29.43 in6.0 miEast (90°)5.8 mphThunderstormThunderstorm
8:20 PM44.6 °F42.8 °F93 %29.42 in6.2 miCalmRain-ThunderstormLight Thunderstorms and Rain
8:50 PM46.4 °F44.6 °F93 %29.44 in6.2 miSW (220°)5.8 mphRainLight Rain
9:20 PM46.4 °F44.6 °F93 %29.44 in6.2 miESE (120°)4.6 mphMostly Cloudy
9:50 PM46.4 °F44.6 °F93 %29.44 in6.2 miCalmRainLight Rain
10:20 PM46.4 °F44.6 °F93 %29.44 in6.2 miCalmRain-ThunderstormLight Thunderstorms and Rain
10:50 PM44.6 °F42.8 °F93 %29.44 in6.2 miCalmThunderstormThunderstorm
11:20 PM44.6 °F42.8 °F93 %29.47 in6.2 miWest (270°)4.6 mphRain-ThunderstormLight Thunderstorms and Rain
11:50 PM42.8 °F42.8 °F100 %29.50 in6.2 miCalmRain-ThunderstormLight Thunderstorms and Rain
Hourly data recorded from LGIO, located miles away from Ioannina, Greece







STORIES FROM OUR PARTNERS